EHI
35 36 40 40 35 31 31 32 29 25 23 16 8 5 7 9 12 16 22 33 39 37 30 26 22 14 9 7 5 3 3 2 0 0 0 0 1 1 0 0 0 0 0
37 35 36 35 29 25 25 27 28 29 28 22 13 9 10 11 14 18 23 28 32 31 28 26 22 16 10 7 6 4 3 2 1 0 0 0 1 1 0 0 0 0 0
34 30 28 27 22 19 19 22 26 31 30 25 18 14 15 16 15 15 19 22 23 22 24 23 21 18 13 9 6 5 4 3 2 1 0 0 1 1 0 0 0 0 0
28 25 21 19 19 18 20 22 24 29 28 24 20 17 18 19 15 11 12 16 19 20 21 20 18 18 16 11 7 4 4 4 3 1 0 0 0 0 0 0 0 0 0
24 21 18 16 17 20 23 22 22 24 23 20 17 14 15 18 16 11 10 14 18 22 21 19 17 16 15 13 8 5 5 5 4 2 1 0 0 0 0 0 0 0 0
22 20 17 16 17 21 23 21 20 18 16 12 8 7 9 12 14 13 12 14 17 18 18 18 18 15 14 13 11 9 8 7 6 4 2 0 0 1 1 1 0 0 0
19 17 15 16 18 20 21 18 15 13 10 6 2 1 2 5 7 9 10 12 13 13 13 16 18 18 16 15 14 13 11 10 8 6 3 1 1 2 2 2 1 0 0
14 13 13 14 14 15 15 13 10 8 6 3 1 0 0 1 2 4 7 8 9 10 11 13 16 18 17 15 13 12 12 13 11 7 4 3 2 3 3 3 1 0 0
9 9 9 9 8 8 9 9 7 6 4 2 1 0 0 0 0 2 4 4 5 7 8 9 11 14 15 15 13 9 9 11 8 5 5 5 4 3 3 3 2 1 0
6 5 5 5 4 4 4 5 5 4 3 1 0 0 0 0 0 0 1 1 2 3 5 6 7 8 10 13 11 6 4 5 3 2 3 4 4 3 3 3 2 1 0
3 2 2 3 3 3 2 3 3 2 1 1 0 0 0 0 0 0 0 0 1 1 3 4 5 5 6 8 6 3 1 1 1 0 1 1 2 1 1 2 1 0 0
2 1 2 3 3 3 2 1 1 1 0 0 0 0 0 0 0 0 0 0 0 0 1 3 3 3 4 4 2 1 0 0 0 0 0 0 0 0 0 0 0 0 0
2 1 2 3 3 2 1 0 0 0 0 0 0 0 0 0 0 0 0 0 0 0 0 1 1 2 3 2 1 0 0 0 0 0 0 0 0 0 0 0 0 1 1
1 0 1 2 2 1 0 0 0 0 0 0 0 0 0 0 0 0 0 0 0 0 0 0 0 1 1 1 0 0 0 0 0 0 0 0 0 0 0 0 0 0 0
0 0 0 1 1 0 0 0 0 0 0 0 0 0 0 0 0 0 0 0 0 0 0 0 0 0 1 1 0 0 0 0 0 0 0 0 0 0 0 0 0 0 0
0 0 0 0 0 0 0 0 0 0 0 0 0 0 0 0 0 0 0 0 0 0 0 0 0 0 0 1 0 0 0 0 0 0 0 0 0 0 0 0 0 0 0
0 0 0 0 0 0 0 0 0 0 0 0 0 0 0 0 0 0 0 0 0 0 0 0 0 0 0 0 0 0 0 0 0 0 0 0 0 0 0 0 0 0 0
0 0 0 0 0 0 0 0 0 0 0 0 0 0 0 0 0 0 0 0 0 0 0 0 0 0 0 0 0 0 0 0 0 0 0 0 0 0 0 0 0 0 0
0 0 0 0 0 0 0 0 0 0 0 0 0 0 0 0 0 0 0 0 0 0 0 0 0 0 0 0 0 0 0 0 0 0 0 0 0 0 0 0 0 0 0
0 0 0 0 0 0 0 0 0 0 0 0 0 0 0 0 0 0 0 0 0 0 0 0 0 0 0 0 0 0 0 0 0 0 0 0 0 0 0 0 0 0 0
0 0 0 0 0 0 0 0 0 0 0 0 0 0 0 0 0 0 0 0 0 0 0 0 0 0 0 0 0 0 0 0 0 0 0 0 0 0 0 0 0 0 0
0 0 0 0 0 0 0 0 0 0 0 0 0 0 0 0 0 0 0 0 0 0 0 0 0 0 0 0 0 0 0 0 0 0 0 0 0 0 0 0 0 0 0
0 0 0 0 0 0 0 0 0 0 0 0 0 0 0 0 0 0 0 0 0 0 0 0 0 0 0 0 0 0 0 0 0 0 0 0 0 0 0 0 0 0 0
0 0 0 0 0 0 0 0 0 0 0 0 0 0 0 0 0 0 0 0 0 0 0 0 0 0 0 0 0 0 0 0 0 0 0 0 0 0 0 0 0 0 0
0 0 0 0 0 0 0 0 0 0 0 0 0 0 0 0 0 0 0 0 0 0 0 0 0 0 0 0 0 0 0 0 0 0 0 0 0 0 0 0 0 0 0
0 0 0 0 0 0 0 0 0 0 0 0 0 0 0 0 0 0 0 0 0 0 0 0 0 0 0 0 0 0 0 0 0 0 0 0 0 0 0 0 0 0 0
Wind_Speed
1 1 1 1 2 1 2 2 3 3 4 4 5 4 4 3 2 0 2 9 9 8 9 10 11 11 11 11 12 11 11 12 13 12 11 11 11 11 10 10 10 10 10
1 1 2 1 2 2 1 2 3 3 3 2 4 5 5 4 2 1 1 5 8 9 9 9 10 10 11 11 12 11 11 11 12 12 11 11 11 11 10 10 10 10 10
1 1 2 1 1 2 2 2 3 2 3 3 4 5 4 4 4 3 2 2 4 8 10 9 9 9 9 10 11 12 11 11 11 12 12 12 12 11 11 10 10 10 10
2 2 2 1 2 3 2 2 2 2 3 3 3 3 3 3 5 4 3 3 2 3 5 8 9 9 9 9 10 11 11 12 12 12 12 12 12 11 11 10 11 10 10
1 2 2 1 3 2 2 3 1 1 3 3 4 4 4 4 4 5 3 3 2 2 3 6 9 8 8 9 9 10 10 11 11 11 12 13 12 12 11 11 10 10 11
1 2 2 1 2 2 2 2 2 2 2 3 5 4 3 4 3 3 3 3 2 3 3 4 4 6 8 8 7 8 8 9 9 10 11 12 12 12 11 11 11 11 11
1 1 2 2 2 1 2 3 2 3 3 2 2 3 4 4 3 2 2 2 2 3 3 3 3 3 4 7 6 6 6 7 7 8 9 9 9 10 11 11 11 11 11
1 1 1 2 2 2 2 2 2 2 3 2 2 2 2 2 1 2 1 2 2 2 2 3 3 3 3 3 4 6 5 5 6 7 6 6 7 8 9 10 11 11 11
0 1 1 2 2 2 2 2 2 3 3 3 2 2 2 2 2 2 2 1 1 1 1 1 2 2 4 3 3 3 3 3 4 5 5 4 6 7 8 9 9 9 10
1 0 1 2 2 2 2 3 3 3 3 3 2 2 2 1 2 2 1 1 1 1 2 1 1 1 2 3 4 5 4 3 3 3 4 4 5 7 7 8 9 9 10
1 1 2 2 2 2 2 2 2 3 2 2 2 3 3 2 3 2 2 2 2 1 1 1 0 1 1 2 3 3 4 3 2 2 3 3 4 5 6 7 8 9 9
1 2 2 2 2 2 2 2 2 2 2 2 2 2 2 2 2 2 3 2 2 2 1 1 1 1 1 2 3 4 4 4 3 3 3 3 3 3 4 5 7 8 9
1 2 2 2 2 2 2 2 2 2 2 2 3 2 2 2 2 2 2 2 2 2 2 2 2 1 1 2 3 4 4 3 4 3 3 2 3 3 3 4 5 5 6
1 1 1 1 2 2 3 2 2 2 2 2 4 3 2 2 2 2 2 2 2 2 2 2 1 1 1 2 3 3 3 4 3 3 3 2 2 3 3 3 3 4 4
1 2 2 2 2 2 3 3 2 3 2 2 3 3 2 2 2 2 2 2 2 2 2 2 1 1 1 2 2 1 2 4 4 3 2 2 2 3 3 3 3 3 3
2 2 1 1 2 2 2 2 2 3 3 3 2 2 2 2 2 2 2 2 2 2 2 1 1 0 1 1 2 1 2 4 4 4 4 3 2 3 3 4 4 4 4
1 1 2 2 2 2 2 2 3 3 3 4 4 3 3 3 2 2 2 2 2 2 2 2 1 0 0 1 1 1 2 3 3 5 5 4 4 4 4 4 4 5 5
1 1 2 2 2 2 3 3 3 3 3 4 4 4 4 3 3 3 2 3 2 2 1 2 1 1 1 1 2 2 2 3 3 6 6 6 5 5 5 4 4 4 4
1 1 1 2 2 2 2 3 3 3 3 3 4 4 4 4 4 3 3 3 2 2 1 1 2 1 1 1 2 2 2 1 2 5 7 6 6 6 6 5 5 5 5
1 1 1 2 1 2 2 3 3 3 3 3 3 3 4 3 4 4 4 3 2 2 2 1 2 1 1 2 2 2 2 2 2 3 4 6 7 7 7 6 6 6 6
2 2 2 2 1 2 4 5 4 4 4 4 3 3 3 2 3 3 3 3 3 2 2 2 2 2 2 2 2 2 2 2 2 2 2 3 4 4 5 6 6 6 6
2 2 2 2 2 3 4 6 5 4 4 4 3 3 2 1 2 3 3 3 3 3 3 2 2 2 2 2 2 2 1 1 2 2 3 2 3 4 4 4 8 9 9
1 2 2 2 2 2 3 4 5 5 4 3 3 3 3 3 3 3 3 4 4 5 5 3 3 3 2 2 1 2 1 1 1 2 2 2 2 3 4 5 11 11 11
2 2 2 2 1 2 3 4 7 4 4 3 3 3 2 2 4 5 4 3 2 2 3 4 3 3 2 2 1 2 2 2 1 2 2 2 2 2 3 3 10 12 12
2 2 2 1 1 1 2 3 5 4 4 4 3 3 3 2 4 6 4 3 3 3 3 3 3 3 4 4 3 1 2 1 2 2 2 2 2 2 2 3 6 12 12
2 2 2 1 1 1 1 2 3 3 3 3 2 0 2 3 3 5 4 4 4 3 3 2 3 5 5 6 6 4 3 2 1 2 2 2 1 1 1 2 4 5 7
Wind_Direction
276 301 300 282 261 253 209 224 232 250 259 270 282 289 283 273 276 189 170 181 178 186 197 202 205 210 215 214 214 215 219 222 222 222 220 220 221 221 221 220 219 218 216
337 334 311 303 283 283 277 254 252 251 262 277 288 289 288 293 290 270 202 181 187 194 204 209 209 213 219 219 214 215 218 225 223 222 221 221 221 221 221 221 219 219 217
343 315 289 279 291 279 273 271 280 280 265 258 257 264 271 279 282 274 249 201 193 203 209 211 212 216 220 224 222 218 217 222 225 223 224 225 224 222 221 220 219 219 217
334 311 301 311 303 280 265 255 264 278 274 272 267 270 269 263 258 254 244 230 212 203 201 209 215 219 220 224 226 223 220 221 224 224 226 227 226 224 223 220 220 220 218
330 308 297 308 293 285 289 288 320 288 281 275 264 251 249 247 243 245 233 226 217 203 194 196 206 211 218 221 226 228 225 225 225 226 227 228 227 224 221 221 222 222 219
340 319 288 307 301 305 323 324 314 289 270 267 276 279 266 252 243 236 239 227 213 213 206 195 192 211 213 214 219 226 229 232 231 229 229 227 227 226 220 221 222 223 221
352 299 326 320 313 327 337 319 307 292 282 282 285 285 271 254 240 229 235 243 231 222 207 194 190 191 192 200 206 213 224 231 234 231 229 227 224 224 222 221 221 222 220
309 293 357 330 352 330 331 321 326 311 313 316 293 292 286 280 289 263 231 223 238 239 216 210 202 192 177 172 191 209 216 222 227 231 227 229 227 226 222 223 223 221 218
314 351 356 6 348 332 350 328 340 328 314 312 299 289 290 292 322 280 271 263 237 266 261 227 203 200 190 169 174 182 181 193 222 225 217 220 225 225 220 218 221 218 217
358 25 17 19 0 351 355 335 18 332 317 314 317 298 279 291 288 301 303 295 295 292 288 280 240 213 199 166 150 140 150 176 219 225 228 226 227 226 221 216 217 217 218
38 40 47 27 3 351 359 349 343 328 320 324 323 317 310 294 261 264 278 287 287 278 287 291 293 255 206 151 146 142 156 170 185 225 243 245 236 226 223 220 219 219 221
75 50 40 28 1 352 344 327 314 307 311 316 308 302 308 309 303 290 280 284 277 280 278 274 243 230 196 127 126 137 150 164 178 209 232 235 229 222 220 214 219 224 225
71 57 31 7 354 350 329 326 308 301 307 311 299 295 299 292 296 291 284 287 291 295 280 257 230 205 148 121 124 141 149 158 172 186 206 214 220 220 220 207 211 218 223
35 52 38 4 352 341 340 340 309 316 331 322 311 308 291 296 302 293 285 289 292 283 274 271 231 134 97 108 125 154 150 159 170 181 192 194 203 206 201 192 204 213 206
344 32 19 5 346 341 344 340 341 336 332 316 313 319 318 313 305 303 295 280 273 279 278 274 293 105 111 116 141 179 154 161 177 178 170 185 194 192 182 170 178 180 149
28 16 360 350 346 344 343 345 339 342 337 324 315 321 325 315 311 309 309 300 275 265 273 284 307 56 94 107 150 154 144 160 178 179 169 160 149 145 147 146 152 150 137
31 359 351 355 354 347 347 345 337 335 342 340 330 331 325 317 316 311 312 309 301 273 262 282 321 325 91 122 154 213 184 183 170 170 168 162 152 139 136 144 149 148 144
23 10 353 344 341 355 353 342 337 346 343 340 334 331 323 320 325 318 308 295 292 285 255 259 276 283 269 203 193 213 222 199 166 168 173 171 164 153 150 149 155 156 156
345 319 322 325 336 349 344 341 341 338 346 339 337 338 334 335 329 323 306 298 293 296 271 239 253 260 251 225 207 223 232 203 185 167 172 175 173 169 168 166 166 169 167
322 311 310 309 323 347 350 349 348 347 342 336 335 335 337 343 336 326 312 313 308 299 281 256 249 254 237 225 211 209 222 209 204 177 174 169 174 178 181 181 178 175 174
344 341 327 322 336 8 14 4 342 342 343 334 333 338 342 352 345 325 321 329 324 308 287 261 247 239 236 219 221 216 215 200 197 193 173 172 170 177 188 193 188 180 178
358 345 343 349 3 19 32 16 351 332 322 322 324 322 302 275 302 285 283 289 290 290 290 281 266 249 245 239 235 228 216 200 207 198 185 194 176 179 181 179 184 182 185
344 331 329 347 33 29 8 350 340 318 306 310 311 307 316 359 351 335 304 275 270 260 255 261 266 270 266 255 235 242 242 244 240 226 181 202 189 188 188 179 178 185 190
325 314 308 305 332 359 344 334 329 310 299 295 305 317 325 5 5 346 323 319 311 292 257 242 252 265 273 288 268 240 229 230 262 250 186 200 205 196 182 168 183 188 194
303 293 283 278 305 327 308 320 327 309 305 308 318 346 351 35 8 350 333 324 321 304 272 236 231 245 252 257 255 246 219 216 244 240 204 191 199 192 187 184 190 194 198
288 289 302 307 304 305 279 292 315 301 319 320 317 51 44 17 357 351 335 325 322 320 315 274 246 244 240 236 230 225 218 221 246 238 201 186 203 186 208 193 178 186 205